Simultaneous Nadir Overpasses (SNOs) Predictions

Prediction of SNOs between METOP-B and NOAA-19 Satellite Orbit:

Table of predicted SNOs for the next 14.0 days since TLE Epoch: 6/23/2017
Index Date (METOP-B) Time (METOP-B) Lat,Lon (METOP-B) SZA (METOP-B ) Date (NOAA-19) Time (NOAA-19) Lat,Lon (NOAA-19) SZA (NOAA-19 ) Distance(km) Time Diff (sec)
1 06/25/2017 08:42:24 77.30, 54.45 53.89 06/25/2017 08:41:10 77.30, 54.38 53.89 1.89 74
2 06/25/2017 09:33:05 -77.30,-138.19 126.10 06/25/2017 09:32:09 -77.30,-138.35 126.12 3.97 56
3 06/25/2017 10:23:46 77.28, 29.03 53.87 06/25/2017 10:23:11 77.28, 28.99 53.87 1.03 35
4 06/25/2017 11:14:27 -77.28,-163.62 126.12 06/25/2017 11:14:10 -77.27,-163.75 126.13 3.33 17
5 06/25/2017 12:05:08 77.26, 3.60 53.86 06/25/2017 12:05:12 77.25, 3.60 53.85 0.62 4
6 06/25/2017 12:55:49 -77.26, 170.96 126.14 06/25/2017 12:56:11 -77.25, 170.86 126.15 2.81 22
7 06/25/2017 13:46:30 77.24, -21.82 53.84 06/25/2017 13:47:13 77.23, -21.80 53.83 1.22 43
8 06/25/2017 14:37:11 -77.24, 145.53 126.16 06/25/2017 14:38:12 -77.23, 145.46 126.17 2.48 61
9 06/25/2017 15:28:00 76.87, -48.69 53.44 06/25/2017 15:29:07 76.91, -45.88 53.55 71.10 67
10 07/06/2017 03:10:14 77.33, 137.60 54.62 07/06/2017 03:09:06 77.34, 137.51 54.63 2.65 68
11 07/06/2017 04:00:56 -77.30, -55.20 125.41 07/06/2017 04:00:02 -77.31, -55.08 125.40 3.10 54
12 07/06/2017 04:51:36 77.31, 112.17 54.61 07/06/2017 04:51:07 77.32, 112.12 54.61 1.76 29
13 07/06/2017 05:42:18 -77.28, -80.62 125.43 07/06/2017 05:42:03 -77.29, -80.48 125.41 3.67 15
14 07/06/2017 06:32:58 77.29, 86.75 54.59 07/06/2017 06:33:08 77.29, 86.72 54.60 0.90 10
15 07/06/2017 07:23:39 -77.30,-105.86 125.39 07/06/2017 07:24:04 -77.27,-105.87 125.43 4.15 25
16 07/06/2017 08:14:20 77.27, 61.32 54.58 07/06/2017 08:15:09 77.27, 61.33 54.58 0.40 49
17 07/06/2017 09:05:01 -77.28,-131.29 125.41 07/06/2017 09:06:06 -77.28,-131.46 125.40 4.31 65




NCC Satellite Simultaneous Nadir Overpasses (SNOs) Prediction Service
